Location: Copper Mountain Observatory
(34.1350°N, 116.3120°W)
Time: 06:28:12
(UTC-07:00)

Daily predictions for brighter satellites

Satellite Brightness Start Highest point End
(mag) Time Altitude Azimuth Time Altitude Azimuth Time Altitude Azimuth
Timation 1 Rocket 4.5 18:40:56 10° NNW 18:46:50 58° ENE 18:52:40 10° SE
Atlas Centaur 2 4.1 18:39:25 10° W 18:47:15 44° SSW 18:55:06 10° SE
NOSS 3-2 (A) 4.4 18:44:34 10° SW 18:50:24 52° NW 18:56:45 10° NNE
SEDSat Delta rocket 4.2 18:46:09 10° W 18:52:29 70° S 18:59:16 10° E
Cosmos 2278 Rocket 3.9 18:49:12 10° NW 18:54:24 38° WSW 18:59:34 10° S
COSMOS 2441 4.3 18:49:34 10° SSE 18:54:24 75° ENE 18:59:14 10° N
Cosmos 1805 3.8 18:51:41 10° SSE 18:55:18 36° E 18:58:56 10° NNE
Okean 3 Rocket 3.8 18:52:27 10° N 18:57:01 82° W 19:01:33 10° S
ALOS 4.0 18:59:43 10° E 19:01:50 13° ENE 19:03:58 10° NE
Cosmos 1452 Rocket 3.7 18:57:07 10° N 19:02:13 49° ENE 19:07:16 10° SE
Cosmos 2297 4.1 18:58:45 10° NNW 19:04:23 70° WSW 19:09:57 10° S
Resurs 01 Rocket 2.7 19:02:16 10° SE 19:05:52 25° ENE 19:09:28 10° NNE
ISS -2.9 19:02:52 10° WSW 19:06:03 61° NW 19:09:17 10° NE
SL-8 R/B 4.2 19:01:21 10° WSW 19:06:04 60° NW 19:10:48 10° NE
Cosmos 1943 4.0 19:03:25 10° SSE 19:08:11 29° ESE 19:12:57 10° NE
Helios 1B rocket 3.2 19:04:51 10° NE 19:08:28 29° E 19:12:04 10° SSE
Cosmos 1953 2.3 19:05:24 10° S 19:09:18 58° E 19:13:13 10° NNE
Cosmos 2369 Rocket 3.7 19:06:22 10° NNE 19:09:59 17° ENE 19:12:52 12° E
Gbstr 26 Del rocket 3.1 19:08:52 10° SW 19:12:57 67° SE 19:17:54 10° NE
BREEZE-M DEB (TANK) 2.7 19:12:41 10° WNW 19:15:00 54° SW 19:20:25 10° SE
Cosmos 1603 3.7 19:09:38 10° SSW 19:15:21 87° ESE 19:21:08 10° NNE
SL-19 R/B 4.3 19:09:46 10° SSE 19:15:22 80° ENE 19:21:19 10° NNW
CENTAUR R/B 2.7 19:10:07 10° S 19:15:41 47° ESE 19:21:51 10° NE
Cosmos 468 4.5 19:11:23 10° SSW 19:16:38 84° ESE 19:21:53 10° NNE
COSMO-SKYMED 1 3.9 19:13:56 10° N 19:18:04 44° WNW 19:22:10 10° SW
Meteor 2-12 Rocket 4.4 19:13:16 10° S 19:19:20 65° E 19:25:25 10° NNE
Cosmos 1470 3.6 19:17:36 10° SSE 19:20:55 27° E 19:24:13 10° NNE
Cosmos 1420 Rocket 4.5 19:16:17 10° N 19:21:16 40° ENE 19:26:14 10° SE
Cosmos 1674 3.8 19:21:36 10° NNE 19:24:47 24° ENE 19:26:29 18° ESE
ATLAS CENTAUR R/B 4.3 19:22:46 10° WNW 19:24:49 14° WSW 19:26:49 10° SW
Delta 168 4.5 19:22:23 10° SW 19:25:58 29° S 19:29:39 14° ESE
In-Cosmos 22 4.2 19:22:52 10° N 19:28:41 85° E 19:34:23 10° S
ASTRO E2 3.7 19:25:34 10° W 19:29:22 39° SSW 19:32:03 17° SE
Cosmos 1076 Rocket 3.9 19:25:14 10° NNW 19:29:33 69° W 19:33:52 10° S
ATLAS CENTAUR R/B 4.3 19:26:12 10° WSW 19:30:51 50° NNW 19:44:41 10° NE
Spot 2 Rocket 3.6 19:27:24 10° SSE 19:32:16 52° ENE 19:37:10 10° N
Nadezhda 4 Rocket 4.1 19:28:23 10° N 19:34:31 54° E 19:40:31 10° SSE
Cosmos 1766 Rocket 3.7 19:31:09 10° N 19:35:30 73° W 19:39:48 10° S
Cosmos-2242 3.2 19:31:13 10° S 19:35:34 74° W 19:39:57 10° N
HJ-1C 3.5 19:32:33 10° SSE 19:35:49 52° ENE 19:39:05 10° N
Cosmos 1048 Rocket 3.9 19:31:01 10° SSW 19:36:20 83° ESE 19:41:36 10° NNE
FREGAT/IRIS 2.6 19:33:16 10° S 19:36:22 87° W 19:39:27 10° NNW
SJ-6B 3.1 19:33:25 10° S 19:37:22 71° WSW 19:41:27 10° NNW
Cosmos 1346 2.9 19:36:55 10° N 19:39:52 68° E 19:42:03 17° SSE
ATLAS 5 CENTAUR R/B 4.1 19:37:25 10° W 19:41:13 23° NW 19:45:17 10° N
Cosmos 1544 3.2 19:37:34 10° S 19:41:17 77° W 19:45:02 10° N
Cosmos 1269 Rocket 4.2 19:36:48 10° SSW 19:42:04 74° WNW 19:47:22 10° NNE
Cosmos 1092 Rocket 4.2 19:38:38 10° N 19:44:34 46° E 19:50:25 10° SSE
Cosmos 158 Rocket 3.8 19:42:57 10° S 19:47:45 59° ESE 19:52:32 10° NNE
Cosmos 1174 4.0 19:42:53 10° SSW 19:48:00 86° ESE 19:52:03 10° NNE
CZ-4B DEB 4.4 19:55:35 23° NNE 19:55:35 23° NNE 19:57:08 10° N
FengYun 1-2 T 4.1 19:49:02 10° SSE 19:54:29 67° ENE 19:59:56 10° N
Cosmos 1634 Rocket 4.0 19:50:40 10° SSE 19:56:43 55° E 20:02:45 10° NNE
METEOR-M 4.3 19:52:47 10° S 19:58:07 75° WSW 20:03:29 10° NNW
OAO 3 Rocket 3.1 19:56:17 10° W 20:01:02 77° SSW 20:02:28 45° ESE
OAO 1 Rocket 4.4 19:59:04 10° W 20:04:27 88° N 20:06:10 45° E
Cosmos 1842 Rocket 3.6 20:00:26 10° S 20:04:44 75° W 20:09:05 10° N
USA 215 3.3 19:58:21 10° NE 20:04:54 79° NW 20:11:24 10° SW
Cosmos 1500 Rocket 3.4 20:03:06 10° N 20:07:33 84° E 20:10:06 25° S
SeaSat 1 4.4 20:12:56 15° S 20:12:56 15° S 20:13:51 10° S
Helios 1A 3.4 20:07:21 10° S 20:11:30 63° WSW 20:15:42 10° NNW
CZ-2D R/B 4.1 20:17:14 40° N 20:17:14 40° N 20:19:53 10° N
FENGYUN 3A 3.5 20:14:00 28° SSE 20:16:57 80° ENE 20:22:21 10° N
GPS 2-04 Rocket1 3.5 20:21:40 10° W 20:24:12 44° WNW 20:24:12 44° WNW
H-2A R/B 3.8 20:27:38 38° N 20:27:38 38° N 20:30:04 10° N
ASTEX 1 4.3 20:33:47 10° N 20:38:28 46° W 20:43:07 10° SSW
ALOS 2.9 20:37:20 38° SSW 20:38:46 53° W 20:43:20 10° NNW
SEDSat Delta rocket 4.5 20:32:39 10° W 20:39:01 49° SSW 20:39:59 45° S
Resurs 01 Rocket 3.8 20:38:35 10° SSW 20:42:12 24° W 20:45:50 10° NW
Cosmos 2251 Rocket 3.8 20:41:02 10° SSW 20:46:11 64° WNW 20:51:24 10° N
Cosmos 1943 Rocket 3.3 20:40:59 10° N 20:44:16 32° NNE 20:44:16 32° NNE
Cosmos 1627 Rocket 4.4 20:41:40 10° N 20:47:55 83° W 20:49:09 60° S
Cosmos 2369 Rocket 2.5 20:48:49 10° NNW 20:54:24 61° WSW 20:54:43 60° WSW
CENTAUR R/B 4.3 21:01:22 10° WSW 21:06:32 28° NW 21:12:14 10° NNE
